Location: Hopewell Observatory
(38.8698°N, 77.6988°W)
Time: 03:17:34
(UTC-04:00)

Daily predictions for brighter satellites

Satellite Brightness Start Highest point End
(mag) Time Altitude Azimuth Time Altitude Azimuth Time Altitude Azimuth
Cosmos 2237 Rocket 3.8 00:12:24 31° NNW 00:12:24 31° NNW 00:15:55 10° N
COSMOS 2455 4.2 00:06:25 10° NNW 00:10:05 35° N 00:10:05 35° N
CENTAUR R/B 3.4 00:24:02 10° NNW 00:30:30 63° NW 00:30:30 63° NW
ATLAS CENTAUR R/B 4.2 00:24:56 10° NW 00:33:12 36° N 00:33:12 36° N
SL-16 R/B 4.2 01:21:36 22° NNW 01:21:36 22° NNW 01:24:27 10° N
Cosmos 1943 Rocket 4.1 01:30:25 10° N 01:33:00 24° NNE 01:33:00 24° NNE
Cosmos 2369 Rocket 4.2 01:53:14 10° NNW 01:55:12 23° NNW 01:55:12 23° NNW
BREEZE-M DEB (TANK) 4.5 02:11:46 46° NE 02:11:46 46° NE 02:21:09 10° ENE
SL-16 R/B 4.2 02:19:37 24° E 02:20:57 26° ENE 02:25:56 10° N
ADEOS Rocket 3.9 02:35:58 10° NNE 02:39:29 40° NNE 02:39:29 40° NNE
Resurs 1-4 Rocket 3.2 03:00:36 10° NNE 03:04:34 40° ENE 03:04:34 40° ENE
ARIANE 5 R/B 3.8 03:02:31 10° NNE 03:06:37 37° ENE 03:06:37 37° ENE
COSMOS 2406 3.7 03:14:18 57° NNE 03:14:18 57° NNE 03:18:48 10° NNE
CZ-2D R/B 2.5 03:21:12 10° NNE 03:25:45 61° NE 03:25:45 61° NE
Cosmos 2285 Rocket 3.9 03:26:51 81° E 03:26:51 81° E 03:33:09 10° NNE
IRS-1D 3.8 03:32:41 10° NNE 03:37:11 68° NNE 03:37:11 68° NNE
BREEZE M DEB (TANK) 3.3 03:40:16 57° NE 03:40:16 57° NE 03:48:44 10° ESE
MOZ.5/SAFIR/RUBIN 5/SL-8 4.4 03:44:20 51° E 03:44:36 52° ENE 03:49:10 10° N
CZ-3A R/B 3.7 03:37:26 10° NW 03:50:24 10° SSE 03:43:26 47° WNW
Spot 4 Rocket 4.2 03:42:04 10° N 03:46:35 65° NNW 03:46:35 65° NNW
ADEOS II 4.2 03:46:46 10° NE 03:50:38 20° E 03:54:27 10° SE
Cosmos 2123 Rocket 4.3 03:46:15 10° NNW 03:51:27 48° WNW 03:51:27 48° WNW
Lacrosse 5 3.6 03:50:11 10° NNW 03:54:45 32° NE 03:59:18 10° E
Cosmos 1459 Rocket 4.5 03:52:30 35° SSE 03:54:52 54° E 04:00:45 10° NNE
Cosmos 2082 Rocket 3.7 03:53:57 22° SE 03:56:17 29° ESE 04:01:03 10° NE
Cosmos 1633 Rocket 3.5 03:52:14 10° N 03:55:55 58° NNE 03:55:55 58° NNE
ADEOS 3.4 03:54:11 10° N 03:59:25 79° WNW 03:59:25 79° WNW
Cosmos 1726 3.8 04:01:54 28° N 04:01:54 28° N 04:03:47 10° N
Cosmos 2228 Rocket 3.6 04:02:17 50° ESE 04:02:41 52° E 04:07:00 10° NNE
SL-16 R/B 2.8 04:04:42 49° W 04:04:42 49° W 04:10:14 10° NNW
USA 229 DEB 4.1 04:07:46 10° NW 04:14:06 44° WSW 04:14:06 44° WSW
USA 229 4.0 04:07:52 10° NW 04:14:19 45° WSW 04:14:19 45° WSW
Cosmos 1315 Rocket 4.3 04:11:44 10° NNW 04:13:45 27° NNW 04:13:45 27° NNW
Cosmos 1328 Rocket 3.4 04:17:08 89° W 04:17:08 89° W 04:21:30 10° N
NOSS 3-1 (A) 4.2 04:12:06 10° NNW 04:19:51 79° ENE 04:28:21 10° SE
Meteor 2-10 4.1 04:22:32 50° SSW 04:24:01 75° W 04:29:41 10° N
Cosmos 1538 Rocket 4.2 04:26:52 49° W 04:27:39 54° WNW 04:32:56 10° N
Cosmos 1892 3.9 04:24:26 10° N 04:28:06 42° E 04:31:11 14° SSE
Cosmos 2369 4.0 04:22:48 10° NNW 04:28:28 66° ENE 04:34:03 10° SSE
In-Cosmos 22 Rocket 3.9 04:26:08 10° NNW 04:31:30 80° W 04:34:27 27° S
Cosmos 2061 Rocket 4.0 04:28:51 30° S 04:32:14 84° W 04:38:42 10° N
UNKNOWN OBJECT B 3.4 04:32:12 10° N 04:35:51 42° WNW 04:35:51 42° WNW
Cosmos 923 Rocket 4.0 04:34:15 36° S 04:36:24 81° ESE 04:41:40 10° NNE
Cosmos 2016 Rocket 3.9 04:34:35 23° S 04:38:36 87° E 04:44:42 10° N
Cosmos 1933 Rocket 3.5 04:36:39 10° N 04:41:09 86° W 04:43:42 25° S
BREEZE-M DEB (TANK) 3.9 04:38:34 16° NW 04:41:20 50° NNE 04:50:15 10° E
Cosmos 1151 Rocket 2.9 04:41:22 44° SSW 04:42:41 82° W 04:46:59 10° N
Hubble Space Telescope 2.6 04:44:31 18° SSE 04:44:31 18° SSE 04:46:32 10° SE
Resurs 1-4 Rocket 3.5 04:41:15 10° NNW 04:45:08 22° WNW 04:45:39 21° WNW
ARIANE 5 R/B 3.7 04:42:06 10° NNW 04:46:17 25° WNW 04:46:57 24° WNW
NOSS 3-1 (C) 4.1 04:40:12 10° NW 04:47:47 58° WSW 04:56:01 10° SSE
Meteor 1-27 4.1 04:44:07 23° S 04:47:49 89° W 04:53:26 10° N
Cosmos 1833 Rocket 2.7 04:45:25 27° SSW 04:48:40 82° ESE 04:54:20 10° NNE
CZ-2D R/B 4.2 04:48:22 10° N 04:51:54 31° WNW 04:52:00 31° WNW
Cosmos 1725 Rocket 4.0 04:47:26 11° S 04:53:29 80° E 04:59:41 10° N
Cosmos 1680 Rocket 3.5 04:51:05 25° SSW 04:54:15 90° E 04:59:36 10° NNE
Cosmos 2100 Rocket 4.5 04:56:35 27° SW 04:59:27 42° WNW 05:05:28 10° N
Cosmos 1802 Rocket 4.2 04:57:19 25° SW 05:00:52 52° W 05:07:01 10° N
Cosmos 2112 Rocket 4.0 04:58:05 20° SSW 05:01:49 89° ESE 05:07:12 10° NNE
PSLV R/B 3.1 05:02:49 50° WSW 05:03:19 58° SSW 05:06:30 10° ESE
CZ-4B R/B 3.2 05:00:05 10° NNE 05:04:36 79° ESE 05:08:49 12° S
Okean O Rocket 2.0 05:00:21 10° NNE 05:04:44 63° ESE 05:09:04 10° S
CZ-2D R/B 3.9 05:03:06 10° NNW 05:05:57 15° WNW 05:07:04 14° WNW
Cosmos 1980 Rocket 3.5 05:01:52 10° N 05:07:12 43° ENE 05:12:31 10° SE
Tiangong 2 1.4 05:08:15 33° W 05:09:26 59° NNW 05:12:37 10° ENE
Shenzhou-11 Module 2.8 05:14:00 24° WNW 05:15:30 44° N 05:18:29 10° ENE
Cosmos 2278 3.9 05:11:34 10° NNW 05:17:00 49° WSW 05:22:23 10° S
Cosmos 1455 2.4 05:16:37 23° SW 05:18:41 48° W 05:22:20 10° N
Cosmos 1697 Rocket 2.7 05:16:03 10° NNW 05:21:45 85° WSW 05:27:24 10° SSE
Tsikada Rocket 4.0 05:16:18 10° N 05:22:37 73° W 05:28:58 10° S
COSMOS 2487 3.8 05:28:16 19° W 05:29:38 24° WNW 05:32:35 10° N
ADEOS II 2.5 05:25:32 10° N 05:30:33 46° WNW 05:35:24 11° SW
CZ-4B DEB 4.2 05:30:27 10° N 05:35:59 75° WNW 05:41:27 10° SSW
Lacrosse 5 2.1 05:33:00 10° NW 05:37:49 44° SW 05:42:37 10° SSE
Cosmos 2082 Rocket 2.9 05:35:51 14° WSW 05:40:11 37° WNW 05:45:23 10° N
Meteor PRIRODA 3.6 05:38:57 10° NNE 05:42:38 89° W 05:46:16 10° SSW
Cosmos 2084 3.8 05:40:10 14° WSW 05:43:23 42° NW 05:47:05 10° NNE
Cosmos 1862 4.4 05:41:15 10° N 05:45:14 51° E 05:49:11 10° SSE
Cosmos 1869 Rocket 3.7 05:42:43 10° NNW 05:47:06 56° W 05:51:25 10° S
OAO 2 Rocket 3.7 05:46:15 12° WSW 05:50:43 51° S 05:55:34 10° E
Lacrosse 4 Rocket 2.8 05:47:59 10° S 05:52:09 42° ESE 05:56:24 10° NE
Meteor 2-10 Rocket 4.5 05:47:58 10° S 05:53:37 60° E 05:59:21 10° NNE
Cosmos 2242 Rocket 3.9 05:54:02 10° S 05:58:30 75° E 06:02:56 10° N
CZ-4B R/B 3.5 05:53:39 10° N 05:58:53 49° WNW 06:04:01 10° SW
Cosmos 2360 4.2 05:55:10 10° NNW 06:00:52 79° WSW 06:06:33 10° SSE
Timation 2 Rocket 4.1 05:55:29 10° SW 06:01:22 58° WNW 06:07:27 10° NNE
MTI 3.7 05:59:17 10° S 06:02:28 74° WSW 06:05:41 10° NNW
Cosmos 1869 4.1 05:59:02 10° SW 06:02:37 32° WNW 06:06:14 10° NNW
Landsat 4 4.3 06:00:12 10° SSW 06:03:36 33° W 06:07:03 10° NNW
ATLAS 2AS CENTAUR R/B 3.2 05:56:32 10° NNW 06:04:33 80° ENE 06:11:54 10° SE
